• In Moldova, Republic
  • List of Countries
  • For 7 days
  • Water Temperature
  • Satellite Maps
  • Weather Map
  • Weather Widgets
  • user-avatar
    Login

    Hourly Weather Darwin

    Today, 20 January, Saturday

    Time Temperature Precipitation Wind Pressure Humidity
    00:00 +28°C° 0.8 mm 1 mps 753 mmHg 90%
    01:00 +28°C° 0.2 mm 1 mps 753 mmHg 90%
    02:00 +28°C° 0.2 mm 1 mps 753 mmHg 90%
    03:00 +27°C° 0 mm 1 mps 752 mmHg 90%
    04:00 +27°C° 0.1 mm 1 mps 753 mmHg 90%
    05:00 +27°C° 0.1 mm 1 mps 753 mmHg 91%
    06:00 +27°C° 0.1 mm 1 mps 753 mmHg 91%
    07:00 +29°C° 1.7 mm 1 mps 753 mmHg 86%
    08:00 +30°C° 1.7 mm 1 mps 753 mmHg 81%
    09:00 +31°C° 0 mm 2 mps 754 mmHg 76%
    10:00 +31°C° 1.2 mm 2 mps 753 mmHg 74%
    11:00 +32°C° 1.2 mm 2 mps 753 mmHg 72%
    12:00 +32°C° 1.2 mm 2 mps 753 mmHg 70%
    13:00 +34°C° 0.6 mm 3 mps 752 mmHg 69%
    14:00 +34°C° 0.6 mm 3 mps 752 mmHg 68%
    15:00 +34°C° 0 mm 3 mps 752 mmHg 67%
    16:00 +33°C° 1.4 mm 3 mps 752 mmHg 71%
    17:00 +33°C° 1.4 mm 3 mps 752 mmHg 74%
    18:00 +32°C° 1.4 mm 4 mps 752 mmHg 77%
    19:00 +30°C° 2.8 mm 3 mps 752 mmHg 80%
    20:00 +29°C° 2.8 mm 3 mps 753 mmHg 83%
    21:00 +29°C° 0 mm 3 mps 753 mmHg 87%
    22:00 +29°C° 2.7 mm 3 mps 753 mmHg 87%
    23:00 +28°C° 2.7 mm 3 mps 753 mmHg 88%

    Tomorrow, 21 January, Sunday

    Time Temperature Precipitation Wind Pressure Humidity
    00:00 +28°C° 2.7 mm 2 mps 753 mmHg 88%
    01:00 +28°C° 1.8 mm 2 mps 752 mmHg 88%
    02:00 +28°C° 1.8 mm 2 mps 752 mmHg 89%
    03:00 +28°C° 1.8 mm 2 mps 752 mmHg 89%
    04:00 +28°C° 0.6 mm 2 mps 752 mmHg 89%
    05:00 +28°C° 0.6 mm 3 mps 752 mmHg 89%
    06:00 +28°C° 0.6 mm 3 mps 752 mmHg 88%
    07:00 +29°C° 0.2 mm 3 mps 752 mmHg 85%
    08:00 +30°C° 0.2 mm 4 mps 752 mmHg 81%
    09:00 +32°C° 0.2 mm 4 mps 752 mmHg 77%
    10:00 +33°C° 0.8 mm 4 mps 752 mmHg 75%
    11:00 +33°C° 0.8 mm 4 mps 752 mmHg 73%
    12:00 +34°C° 0.8 mm 5 mps 752 mmHg 71%
    13:00 +34°C° 1.5 mm 5 mps 751 mmHg 71%
    14:00 +34°C° 1.5 mm 6 mps 751 mmHg 71%
    15:00 +34°C° 1.5 mm 6 mps 750 mmHg 72%
    16:00 +33°C° 1.5 mm 6 mps 750 mmHg 76%
    17:00 +32°C° 1.5 mm 6 mps 751 mmHg 80%
    18:00 +30°C° 1.5 mm 6 mps 751 mmHg 85%
    19:00 +29°C° 2.6 mm 6 mps 751 mmHg 86%
    20:00 +29°C° 2.6 mm 6 mps 751 mmHg 88%
    21:00 +28°C° 2.6 mm 6 mps 752 mmHg 90%
    22:00 +28°C° 2.2 mm 6 mps 752 mmHg 90%
    23:00 +28°C° 2.2 mm 6 mps 752 mmHg 90%

    Day after tomorrow, 22 January, Monday

    Time Temperature Precipitation Wind Pressure Humidity
    00:00 +28°C° 2.2 mm 6 mps 752 mmHg 90%
    01:00 +28°C° 3.1 mm 6 mps 751 mmHg 90%
    02:00 +28°C° 3.1 mm 7 mps 751 mmHg 91%
    03:00 +28°C° 3.1 mm 7 mps 750 mmHg 91%
    04:00 +28°C° 2.6 mm 7 mps 751 mmHg 91%
    05:00 +28°C° 2.6 mm 7 mps 751 mmHg 91%
    06:00 +28°C° 2.6 mm 7 mps 751 mmHg 91%
    07:00 +28°C° 0.9 mm 7 mps 751 mmHg 89%
    08:00 +29°C° 0.9 mm 6 mps 752 mmHg 87%
    09:00 +29°C° 0.9 mm 6 mps 752 mmHg 85%
    10:00 +30°C° 0.9 mm 6 mps 752 mmHg 83%
    11:00 +32°C° 0.9 mm 6 mps 751 mmHg 80%
    12:00 +33°C° 0.9 mm 6 mps 751 mmHg 77%
    13:00 +32°C° 1.5 mm 6 mps 751 mmHg 78%
    14:00 +32°C° 1.5 mm 6 mps 750 mmHg 80%
    15:00 +32°C° 1.5 mm 6 mps 750 mmHg 81%
    16:00 +30°C° 1.3 mm 6 mps 750 mmHg 84%
    17:00 +29°C° 1.3 mm 5 mps 750 mmHg 86%
    18:00 +28°C° 1.3 mm 5 mps 750 mmHg 89%
    19:00 +28°C° 1 mm 5 mps 751 mmHg 89%
    20:00 +28°C° 1 mm 5 mps 751 mmHg 89%
    21:00 +28°C° 1 mm 4 mps 752 mmHg 89%
    22:00 +28°C° 1.2 mm 4 mps 752 mmHg 89%
    23:00 +28°C° 1.2 mm 4 mps 752 mmHg 90%

    23 January, Tuesday

    Time Temperature Precipitation Wind Pressure Humidity
    00:00 +28°C° 1.2 mm 4 mps 752 mmHg 90%
    01:00 +28°C° 1.3 mm 5 mps 751 mmHg 89%
    02:00 +28°C° 1.3 mm 5 mps 751 mmHg 89%
    03:00 +28°C° 1.3 mm 5 mps 750 mmHg 88%
    04:00 +28°C° 1.1 mm 5 mps 751 mmHg 88%
    05:00 +28°C° 1.1 mm 5 mps 751 mmHg 88%
    06:00 +28°C° 1.1 mm 5 mps 751 mmHg 89%
    07:00 +29°C° 0.9 mm 6 mps 752 mmHg 85%
    08:00 +30°C° 0.9 mm 6 mps 752 mmHg 82%
    09:00 +30°C° 0.9 mm 6 mps 752 mmHg 79%
    10:00 +32°C° 1.2 mm 6 mps 752 mmHg 78%
    11:00 +32°C° 1.2 mm 6 mps 752 mmHg 76%
    12:00 +33°C° 1.2 mm 6 mps 752 mmHg 75%
    13:00 +33°C° 1.4 mm 7 mps 751 mmHg 76%
    14:00 +33°C° 1.4 mm 7 mps 750 mmHg 76%
    15:00 +32°C° 1.4 mm 7 mps 750 mmHg 77%
    16:00 +32°C° 1.2 mm 6 mps 750 mmHg 79%
    17:00 +30°C° 1.2 mm 6 mps 750 mmHg 81%
    18:00 +30°C° 1.2 mm 6 mps 751 mmHg 84%
    19:00 +29°C° 0.4 mm 6 mps 751 mmHg 85%
    20:00 +29°C° 0.4 mm 5 mps 751 mmHg 86%
    21:00 +29°C° 0.4 mm 5 mps 752 mmHg 87%
    22:00 +29°C° 0.5 mm 5 mps 752 mmHg 88%
    23:00 +29°C° 0.5 mm 5 mps 752 mmHg 88%

    24 January, Wednesday

    Time Temperature Precipitation Wind Pressure Humidity
    00:00 +29°C° 0.5 mm 6 mps 752 mmHg 88%
    01:00 +29°C° 1.1 mm 6 mps 751 mmHg 89%
    02:00 +29°C° 1.1 mm 6 mps 750 mmHg 89%
    03:00 +29°C° 1.1 mm 6 mps 749 mmHg 89%
    04:00 +29°C° 2.6 mm 7 mps 750 mmHg 89%
    05:00 +29°C° 2.6 mm 7 mps 750 mmHg 89%
    06:00 +28°C° 2.6 mm 7 mps 750 mmHg 89%
    07:00 +29°C° 3.8 mm 7 mps 750 mmHg 87%
    08:00 +29°C° 3.8 mm 7 mps 751 mmHg 85%
    09:00 +30°C° 3.8 mm 7 mps 751 mmHg 84%
    10:00 +30°C° 2.3 mm 7 mps 751 mmHg 81%
    11:00 +32°C° 2.3 mm 7 mps 751 mmHg 79%
    12:00 +33°C° 2.3 mm 7 mps 750 mmHg 77%
    13:00 +33°C° 1.9 mm 7 mps 750 mmHg 77%
    14:00 +32°C° 1.9 mm 7 mps 749 mmHg 78%
    15:00 +32°C° 1.9 mm 8 mps 749 mmHg 79%
    16:00 +32°C° 1.3 mm 7 mps 749 mmHg 81%
    17:00 +30°C° 1.3 mm 7 mps 749 mmHg 82%
    18:00 +30°C° 1.3 mm 6 mps 749 mmHg 84%
    19:00 +29°C° 0.8 mm 6 mps 749 mmHg 85%
    20:00 +29°C° 0.8 mm 6 mps 750 mmHg 85%
    21:00 +29°C° 0.8 mm 6 mps 750 mmHg 86%
    22:00 +29°C° 0.6 mm 7 mps 750 mmHg 85%
    23:00 +29°C° 0.6 mm 7 mps 750 mmHg 85%

    25 January, Thursday

    Time Temperature Precipitation Wind Pressure Humidity
    00:00 +31°C° 0.6 mm 8 mps 750 mmHg 84%
    01:00 +29°C° 0.5 mm 8 mps 750 mmHg 85%
    02:00 +29°C° 0.5 mm 8 mps 749 mmHg 85%
    03:00 +29°C° 0.5 mm 8 mps 749 mmHg 86%
    04:00 +29°C° 1.3 mm 8 mps 749 mmHg 86%
    05:00 +31°C° 1.3 mm 8 mps 749 mmHg 87%
    06:00 +31°C° 1.3 mm 8 mps 750 mmHg 88%
    07:00 +31°C° 1.9 mm 8 mps 750 mmHg 87%
    08:00 +32°C° 1.9 mm 8 mps 751 mmHg 86%
    09:00 +32°C° 1.9 mm 8 mps 751 mmHg 85%
    10:00 +32°C° 1.9 mm 8 mps 751 mmHg 83%
    11:00 +33°C° 1.9 mm 8 mps 750 mmHg 81%
    12:00 +33°C° 1.9 mm 8 mps 750 mmHg 79%
    13:00 +33°C° 1.2 mm 8 mps 750 mmHg 79%
    14:00 +33°C° 1.2 mm 8 mps 749 mmHg 80%
    15:00 +33°C° 1.2 mm 8 mps 749 mmHg 80%
    16:00 +32°C° 0.5 mm 8 mps 749 mmHg 82%
    17:00 +32°C° 0.5 mm 7 mps 749 mmHg 83%
    18:00 +30°C° 0.5 mm 7 mps 749 mmHg 85%
    19:00 +32°C° 0.1 mm 7 mps 750 mmHg 84%
    20:00 +32°C° 0.1 mm 7 mps 750 mmHg 84%
    21:00 +32°C° 0.1 mm 7 mps 751 mmHg 83%
    22:00 +30°C° 2.3 mm 7 mps 750 mmHg 85%
    23:00 +31°C° 2.3 mm 8 mps 750 mmHg 86%
    Show more